Weather Roundup
Issued by NWS Springfield, MO

Home | Current Version | Previous Version | Text Only | Print | Product List | Glossary On
Versions: 1 2 3 4 5 6 7 8 9 10 11 12 13 14 15 16 17 18 19 20 21 22 23 24 25 26 27 28 29 30 31 32 33 34 35 36 37 38 39 40 41 42 43 44 45 46 47 48 49 50
000
NZUS99 KSGF 220859
HRRSGF

HOURLY WEATHER
NATIONAL WEATHER SERVICE SPRINGFIELD MO
300 AM CST SAT NOV 22 2014

......SGF CWA......

CITY           SKY/WX    TMP DP  RH WIND       PRES   REMARKS
SPRINGFIELD    CLOUDY    48  44  86 S14       30.11F
JOPLIN         CLOUDY    57  49  74 S14       30.09S
WEST PLAINS    CLOUDY    45  40  82 S8        30.19F
ROLLA          CLOUDY    46  41  82 S12       30.12F
OSAGE BEACH    CLOUDY    50  43  76 S8        30.11F

......SURROUNDING SGF CWA......

CITY           SKY/WX    TMP DP  RH WIND       PRES   REMARKS
CHANUTE        CLOUDY    53  53 100 S13G21    30.05S FOG
PARSONS        CLOUDY    55  55 100 S12G18    30.07S FOG
COFFEYVILLE    CLOUDY    55  54  96 S13       30.07S FOG
EMPORIA        FOG       47  47 100 SW3       30.02S VSB 1/4
SILOAM SPRINGS CLOUDY    54  45  71 S9        30.13F
HARRISON AR    PTCLDY    52  47  83 S13       30.16F
NEAR YELLVILLE CLOUDY    43  37  81 CALM      30.19F VSB 1

......KANSAS AND MISSOURI......

CITY           SKY/WX    TMP DP  RH WIND       PRES   REMARKS
KANSAS CTY INT LGT RAIN  51  50  96 S14       30.00F FOG
DOWNTOWN KC    CLOUDY    51  49  92 S10       30.01F FOG
COLUMBIA       CLOUDY    48  44  86 S12       30.10F
SEDALIA        CLOUDY    52  47  83 S13       30.08S
ST JOSEPH      CLOUDY    43  42  97 W6        30.01S FOG
ST LOUIS       MOCLDY    44  36  73 S3        30.16F
SPIRIT OF STL  MOCLDY    37  36  96 CALM      30.14F
KIRKSVILLE     CLOUDY    46  44  93 S12       30.04F
WICHITA        CLOUDY    44  44 100 CALM      30.03F FOG
TOPEKA         CLOUDY    42  41  96 CALM      30.02S FOG
OLATHE         CLOUDY    50  50 100 S15       30.01F FOG

......TENNESSEE......

CITY           SKY/WX    TMP DP  RH WIND       PRES   REMARKS
MEMPHIS        MOCLDY    54  46  74 S8        30.27F
NASHVILLE      MOCLDY    47  33  58 S9        30.36S

......ARKANSAS.......

CITY           SKY/WX    TMP DP  RH WIND       PRES   REMARKS
FAYETTEVILLE   PTCLDY    51  47  86 S10       30.14S
FT SMITH       CLOUDY    50  46  86 NE9       30.16F
LITTLE ROCK    CLOUDY    48  45  89 CALM      30.24S FOG

......OKLAHOMA.......

CITY           SKY/WX    TMP DP  RH WIND       PRES   REMARKS
TULSA          DRIZZLE   56  55  97 S15       30.06F FOG
PONCA CITY     FOG       47  46  97 CALM      30.04S VSB 1/4
MCALESTER      CLOUDY    59  54  83 S13G21    30.10F
OKLAHOMA CITY  DRIZZLE   62  60  93 S10       30.03S FOG

......IOWA............

CITY           SKY/WX    TMP DP  RH WIND       PRES   REMARKS
DES MOINES     CLOUDY    40  36  86 S12       29.97F FOG     WCI  33
QUAD CITIES    LGT RAIN  36  32  85 S5        30.05F FOG     WCI  32

......ILLINOIS........

CITY           SKY/WX    TMP DP  RH WIND       PRES   REMARKS
QUINCY         CLOUDY    44  40  85 S13       30.08S
CHICAGO        DRIZZLE   34  27  75 S14G20    30.09F WCI  25




USA.gov is the U.S. government's official web portal to all federal, state and local government web resources and services.